TimeEST,TemperatureF,Dew PointF,Humidity,Sea Level PressureIn,VisibilityMPH,Wind Direction,Wind SpeedMPH,Gust SpeedMPH,PrecipitationIn,Events,Conditions,WindDirDegrees,DateUTC
12:00 AM,34.2,21.2,59,30.28,-9999.0,North,-9999.0,-,N/A,,Unknown,0,2012-11-28 05:00:00
1:00 AM,34,24,55,30.25,,Calm,Calm,,,,,,2012-11-28 06:00:00
1:00 AM,34.2,23.7,66,30.25,-9999.0,North,-9999.0,-,N/A,,Unknown,0,2012-11-28 06:00:00
2:00 AM,34.2,25.2,70,30.25,-9999.0,North,-9999.0,-,N/A,,Unknown,0,2012-11-28 07:00:00
3:00 AM,34.0,25.9,72,30.25,-9999.0,North,-9999.0,-,N/A,,Unknown,0,2012-11-28 08:00:00
4:00 AM,33.8,25.0,70,30.24,-9999.0,North,-9999.0,-,N/A,,Unknown,0,2012-11-28 09:00:00
5:00 AM,33.1,21.4,62,30.23,-9999.0,North,-9999.0,-,N/A,,Unknown,0,2012-11-28 10:00:00
6:00 AM,33.6,23.2,66,30.24,-9999.0,North,-9999.0,-,N/A,,Unknown,0,2012-11-28 11:00:00
7:00 AM,33,23,57,30.25,,Calm,Calm,,,,,,2012-11-28 12:00:00
7:00 AM,33.3,23.4,67,30.25,-9999.0,North,-9999.0,-,N/A,,Unknown,0,2012-11-28 12:00:00
8:00 AM,33.8,25.2,71,30.26,-9999.0,North,-9999.0,-,N/A,,Unknown,0,2012-11-28 13:00:00
9:00 AM,34.0,26.4,74,30.29,-9999.0,North,-9999.0,-,N/A,,Unknown,0,2012-11-28 14:00:00
10:00 AM,34.3,26.8,74,30.30,-9999.0,North,-9999.0,-,N/A,,Unknown,0,2012-11-28 15:00:00
11:00 AM,34.5,26.8,73,30.31,-9999.0,North,-9999.0,-,N/A,,Unknown,0,2012-11-28 16:00:00
1:00 PM,36,28,61,30.31,,Calm,Calm,,,,,,2012-11-28 18:00:00
1:00 PM,36.5,27.5,70,30.31,-9999.0,North,-9999.0,-,N/A,,Unknown,0,2012-11-28 18:00:00
2:00 PM,36.9,26.2,65,30.30,-9999.0,North,-9999.0,-,N/A,,Unknown,0,2012-11-28 19:00:00
3:00 PM,37.9,27.3,66,30.28,-9999.0,North,-9999.0,-,N/A,,Unknown,0,2012-11-28 20:00:00
4:00 PM,38.8,25.3,58,30.28,-9999.0,North,-9999.0,-,N/A,,Unknown,0,2012-11-28 21:00:00
5:00 PM,39.7,26.4,59,30.30,-9999.0,North,-9999.0,-,N/A,,Unknown,0,2012-11-28 22:00:00
6:00 PM,39.6,25.9,58,30.30,-9999.0,North,-9999.0,-,N/A,,Unknown,0,2012-11-28 23:00:00
7:00 PM,40,29,52,30.31,,Calm,Calm,,,,,,2012-11-29 00:00:00
7:00 PM,39.7,28.6,64,30.31,-9999.0,North,-9999.0,-,N/A,,Unknown,0,2012-11-29 00:00:00
8:00 PM,39.4,28.0,64,30.32,-9999.0,North,-9999.0,-,N/A,,Unknown,0,2012-11-29 01:00:00
9:00 PM,39.2,28.6,66,30.32,-9999.0,North,-9999.0,-,N/A,,Unknown,0,2012-11-29 02:00:00
10:00 PM,38.7,28.9,68,30.32,-9999.0,North,-9999.0,-,N/A,,Unknown,0,2012-11-29 03:00:00
11:00 PM,38.1,29.3,71,30.32,-9999.0,North,-9999.0,-,N/A,,Unknown,0,2012-11-29 04:00:00